Time,TemperatureF,DewpointF,PressureIn,WindDirection,WindDirectionDegrees,WindSpeedMPH,WindSpeedGustMPH,Humidity,HourlyPrecipIn,Conditions,Clouds,dailyrainin,SoftwareType,DateUTC
2013-09-09 00:04:00,56.0,46.0,30.06,NNW,338,0.0,0.0,68,0.00,,,0.08,,2013-09-09 04:04:00,
2013-09-09 00:14:00,56.0,46.0,30.06,NNW,338,0.0,0.0,68,0.00,,,0.08,,2013-09-09 04:14:00,
2013-09-09 00:24:00,55.0,45.0,30.06,NNW,338,0.0,0.0,68,0.00,,,0.08,,2013-09-09 04:24:00,
2013-09-09 00:54:00,54.0,46.0,30.06,NNW,338,0.0,0.0,73,0.00,,,0.08,,2013-09-09 04:54:00,
2013-09-09 01:23:00,54.0,46.0,30.09,NNW,338,0.0,0.0,74,0.00,,,0.08,,2013-09-09 05:23:00,
2013-09-09 01:53:00,53.0,45.0,30.09,North,0,0.0,0.0,75,0.00,,,0.08,,2013-09-09 05:53:00,
2013-09-09 02:22:00,53.0,46.0,30.09,NNW,338,0.0,0.0,76,0.00,,,0.08,,2013-09-09 06:22:00,
2013-09-09 02:52:00,52.0,45.0,30.09,NNW,338,0.0,0.0,77,0.00,,,0.08,,2013-09-09 06:52:00,
2013-09-09 03:22:00,52.0,45.0,30.09,North,0,0.0,0.0,77,0.00,,,0.00,,2013-09-09 07:22:00,
2013-09-09 03:52:00,51.0,45.0,30.12,North,0,0.0,0.0,79,0.00,,,0.00,,2013-09-09 07:52:00,
2013-09-09 04:22:00,51.0,45.0,30.12,NNW,338,0.0,0.0,80,0.00,,,0.00,,2013-09-09 08:22:00,
2013-09-09 04:52:00,51.0,45.0,30.12,NNW,338,0.0,0.0,80,0.00,,,5.20,,2013-09-09 08:52:00,
2013-09-09 05:22:00,51.0,45.0,30.15,NNW,338,0.0,0.0,81,0.00,,,0.08,,2013-09-09 09:22:00,
2013-09-09 05:54:00,51.0,46.0,30.15,NNW,338,0.0,0.0,82,0.00,,,0.08,,2013-09-09 09:54:00,
2013-09-09 06:23:00,50.0,45.0,30.18,NNW,338,0.0,0.0,82,0.00,,,0.08,,2013-09-09 10:23:00,
2013-09-09 06:52:00,50.0,45.0,30.18,NNW,338,0.0,0.0,82,0.00,,,0.08,,2013-09-09 10:52:00,
2013-09-09 07:22:00,50.0,45.0,30.18,NNW,338,0.0,0.0,83,0.00,,,0.08,,2013-09-09 11:22:00,
2013-09-09 07:52:00,51.0,47.0,30.21,NNW,338,0.0,0.0,85,0.00,,,0.08,,2013-09-09 11:52:00,
2013-09-09 08:22:00,53.0,48.0,30.21,NNW,338,0.0,0.0,83,0.00,,,0.08,,2013-09-09 12:22:00,
2013-09-09 08:52:00,55.0,49.0,30.21,NNE,22,0.0,0.0,81,0.00,,,0.08,,2013-09-09 12:52:00,
2013-09-09 09:22:00,58.0,50.0,30.21,NNE,22,0.0,0.0,74,0.00,,,0.08,,2013-09-09 13:22:00,
2013-09-09 09:52:00,59.0,48.0,30.24,NNE,22,0.0,0.0,67,0.00,,,5.20,,2013-09-09 13:52:00,
2013-09-09 10:22:00,61.0,48.0,30.24,NE,45,0.0,0.0,63,0.00,,,0.08,,2013-09-09 14:22:00,
2013-09-09 10:52:00,62.0,48.0,30.24,NE,45,0.0,0.0,61,0.00,,,0.08,,2013-09-09 14:52:00,
2013-09-09 11:02:00,62.0,48.0,30.24,NE,45,0.0,0.0,61,0.00,,,0.08,,2013-09-09 15:02:00,
2013-09-09 11:22:00,63.0,48.0,30.21,SSW,202,0.0,0.0,59,0.00,,,0.08,,2013-09-09 15:22:00,
2013-09-09 11:53:00,65.0,51.0,30.21,North,0,0.0,0.0,60,0.00,,,0.08,,2013-09-09 15:53:00,
2013-09-09 12:24:00,65.0,49.0,30.21,SW,225,0.0,0.0,57,0.00,,,5.20,,2013-09-09 16:24:00,
2013-09-09 12:54:00,66.0,50.0,30.21,North,0,0.0,0.0,56,0.00,,,0.08,,2013-09-09 16:54:00,
2013-09-09 13:23:00,67.0,51.0,30.21,West,270,0.0,0.0,56,0.00,,,0.08,,2013-09-09 17:23:00,
2013-09-09 13:53:00,67.0,52.0,30.21,North,0,0.0,0.0,58,0.00,,,5.20,,2013-09-09 17:53:00,
2013-09-09 14:22:00,67.0,52.0,30.21,WSW,248,0.0,0.0,58,0.00,,,0.00,,2013-09-09 18:22:00,
2013-09-09 14:52:00,68.0,53.0,30.18,NW,315,0.0,0.0,58,0.00,,,0.08,,2013-09-09 18:52:00,
2013-09-09 15:02:00,68.0,53.0,30.18,NW,315,0.0,0.0,58,0.00,,,0.08,,2013-09-09 19:02:00,
2013-09-09 15:22:00,66.0,50.0,30.21,North,0,0.0,0.0,56,0.00,,,5.20,,2013-09-09 19:22:00,
2013-09-09 15:52:00,67.0,51.0,30.21,North,0,0.0,0.0,57,0.00,,,0.00,,2013-09-09 19:52:00,
2013-09-09 16:22:00,66.0,51.0,30.21,West,270,0.0,0.0,59,0.00,,,5.20,,2013-09-09 20:22:00,
2013-09-09 16:53:00,65.0,51.0,30.21,SW,225,0.0,0.0,61,0.00,,,0.00,,2013-09-09 20:53:00,
2013-09-09 17:22:00,64.0,52.0,30.21,South,180,0.0,0.0,65,0.00,,,0.00,,2013-09-09 21:22:00,
2013-09-09 17:54:00,64.0,52.0,30.18,SSE,158,0.0,0.0,66,0.00,,,0.00,,2013-09-09 21:54:00,
2013-09-09 18:24:00,63.0,52.0,30.18,South,180,0.0,0.0,68,0.00,,,0.00,,2013-09-09 22:24:00,
2013-09-09 18:54:00,62.0,52.0,30.18,North,0,0.0,0.0,70,0.00,,,5.20,,2013-09-09 22:54:00,
2013-09-09 19:22:00,62.0,53.0,30.18,SW,225,0.0,0.0,72,0.00,,,0.00,,2013-09-09 23:22:00,
2013-09-09 19:52:00,60.0,52.0,30.18,SW,225,0.0,0.0,74,0.00,,,0.00,,2013-09-09 23:52:00,
2013-09-09 20:02:00,60.0,52.0,30.18,SW,225,0.0,0.0,74,0.00,,,0.00,,2013-09-10 00:02:00,
2013-09-09 20:22:00,60.0,52.0,30.18,SW,225,0.0,0.0,76,0.00,,,5.20,,2013-09-10 00:22:00,
2013-09-09 20:32:00,60.0,52.0,30.18,SW,225,0.0,0.0,76,0.00,,,5.20,,2013-09-10 00:32:00,
2013-09-09 20:52:00,59.0,52.0,30.18,SW,225,0.0,0.0,78,0.00,,,0.00,,2013-09-10 00:52:00,
2013-09-09 21:01:00,59.0,52.0,30.18,SW,225,0.0,0.0,78,0.00,,,0.00,,2013-09-10 01:01:00,
2013-09-09 21:12:00,59.0,52.0,30.18,SW,225,0.0,0.0,78,0.00,,,0.00,,2013-09-10 01:12:00,
2013-09-09 21:21:00,59.0,52.0,30.18,SW,225,0.0,0.0,78,0.00,,,0.00,,2013-09-10 01:21:00,
2013-09-09 21:53:00,58.0,53.0,30.18,SW,225,0.0,0.0,82,0.00,,,0.00,,2013-09-10 01:53:00,
2013-09-09 22:12:00,58.0,53.0,30.18,SW,225,0.0,0.0,82,0.00,,,0.00,,2013-09-10 02:12:00,
2013-09-09 22:22:00,58.0,53.0,30.18,SW,225,0.0,0.0,82,0.00,,,0.00,,2013-09-10 02:22:00,
2013-09-09 22:52:00,58.0,53.0,30.18,SW,225,0.0,0.0,83,0.00,,,0.00,,2013-09-10 02:52:00,
2013-09-09 23:02:00,58.0,53.0,30.18,SW,225,0.0,0.0,83,0.00,,,0.00,,2013-09-10 03:02:00,
2013-09-09 23:12:00,58.0,53.0,30.18,SW,225,0.0,0.0,83,0.00,,,0.00,,2013-09-10 03:12:00,
2013-09-09 23:22:00,58.0,53.0,30.18,SW,225,0.0,0.0,83,0.00,,,0.00,,2013-09-10 03:22:00,
2013-09-09 23:55:00,59.0,54.0,30.18,SW,225,0.0,0.0,83,0.00,,,5.20,,2013-09-10 03:55:00,